Location: Firdgum
(53.2488°N, 5.5615°E)
Time: 23:06:41
(UTC+00:00)

Cosmos 1331 Rocket - Pass Details

Date: 08 December 2019
Orbit: 749 x 779 km, 74.0° (Epoch: 18 January)

Event Time Altitude Azimuth Distance (km) Brightness Sun altitude
Rises 06:53:12 0° 208° (SSW) 3,186 7.2 -6.4°
Reaches altitude 10° 06:55:32 10° 209° (SSW) 2,267 6.5 -6.1°
Maximum altitude 07:00:41 80° 297° (WNW) 771 4.0 -5.5°
Drops below altitude 10° 07:05:54 10° 25° (NNE) 2,295 6.4 -4.8°
Sets 07:08:18 0° 26° (NNE) 3,229 7.2 -4.5°
